Weather History for Ukiah, CA

Change the Weather History Date:

Saturday, October 15, 2011

  Actual Average Record
Temperature  
Mean Temperature 68 °F 61 °F  
Max Temperature 82 °F 78 °F 101 °F (1961)
Min Temperature 53 °F 44 °F 31 °F (1913)
Degree Days  
Heating Degree Days 0 5  
Month to date heating degree days 59 52  
Since 1 July heating degree days 62 85  
Cooling Degree Days 3 0  
Month to date cooling degree days 12 19  
Year to date cooling degree days 888 832  
Growing Degree Days 18 (Base 50)    
Moisture  
Dew Point 56 °F    
Average Humidity 68    
Maximum Humidity 93    
Minimum Humidity 42    
Precipitation  
Precipitation 0.00 in 0.07 in 1.82 in (1969)
Month to date precipitation 3.59 0.43  
Year to date precipitation 25.65 24.40  
Since 1 July precipitation 3.61 1.02  
Snow  
Snow 0.00 in - - ()
Month to date snowfall 0.0  
Since 1 July snowfall 0.0  
Since 1 September snowfall 0.0  
Snow Depth 0.00 in    
Sea Level Pressure  
Sea Level Pressure 29.88 in    
Wind  
Wind Speed 3 mph (SSE)    
Max Wind Speed 13 mph    
Max Gust Speed 16 mph    
Visibility 10 miles    
Events      
T = Trace of Precipitation, MM = Missing Value Source: NWS Daily Summary

Daily Weather History Graph

Daily Weather History Graph

Search for Another Location

Airport:

Trip Planner

Search our weather history database for the weather conditions in past years. The results will help you decide how hot, cold, wet, or windy it might be!

Date:

Astronomy

Oct. 15, 2011 Rise Set
Actual Time 7:22 AM PDT 6:34 PM PDT
Civil Twilight 6:55 AM PDT 7:01 PM PDT
Nautical Twilight 6:24 AM PDT 7:32 PM PDT
Astronomical Twilight 5:53 AM PDT 8:03 PM PDT
Moon 8:37 PM PDT (10/15) 10:49 AM PDT (10/15)
Length of Visible Light 12h 05m
Length of Day
11h 12m
Waning Gibbous, 88% of the Moon is Illuminated
Oct 15
Waning Gibbous
Oct 19
Last Quarter
Oct 26
New
Nov 2
First Quarter
Nov 10
Full

Hourly Weather History & Observations

Time (PDT) Temp. Heat Index Dew Point Humidity Pressure Visibility Wind Dir Wind Speed Gust Speed Precip Events Conditions
12:56 AM 61.0 °F - 57.0 °F 87% 29.84 in 10.0 mi North 3.5 mph - N/A   Clear
1:56 AM 59.0 °F - 55.9 °F 90% 29.85 in 10.0 mi Calm Calm - N/A   Clear
2:56 AM 57.0 °F - 55.0 °F 93% 29.85 in 10.0 mi Calm Calm - N/A   Clear
3:56 AM 57.9 °F - 55.0 °F 90% 29.84 in 10.0 mi Calm Calm - N/A   Clear
4:56 AM 55.0 °F - 54.0 °F 96% 29.85 in 10.0 mi Calm Calm - N/A   Clear
5:56 AM 55.0 °F - 54.0 °F 96% 29.86 in 10.0 mi Calm Calm - N/A   Clear
6:56 AM 55.9 °F - 53.1 °F 90% 29.87 in 10.0 mi Calm Calm - N/A   Clear
7:56 AM 55.0 °F - 53.1 °F 93% 29.88 in 10.0 mi Calm Calm - N/A   Clear
8:56 AM 57.9 °F - 55.0 °F 90% 29.90 in 10.0 mi Calm Calm - N/A   Clear
9:56 AM 64.4 °F - 57.2 °F 77% 29.91 in 10.0 mi Calm Calm - N/A   Clear
10:56 AM 66.9 °F - 57.9 °F 73% 29.90 in 10.0 mi Calm Calm - N/A   Clear
11:56 AM 71.1 °F - 57.9 °F 63% 29.89 in 10.0 mi Calm Calm - N/A   Clear
12:56 PM 75.9 °F - 57.9 °F 54% 29.87 in 10.0 mi Calm Calm - N/A   Clear
1:56 PM 79.0 °F - 57.9 °F 48% 29.85 in 10.0 mi East 3.5 mph - N/A   Clear
2:56 PM 81.0 °F 80.8 °F 55.9 °F 42% 29.83 in 10.0 mi SE 4.6 mph - N/A   Clear
3:56 PM 82.0 °F 81.7 °F 57.0 °F 42% 29.82 in 10.0 mi SSE 6.9 mph - N/A   Clear
4:56 PM 79.0 °F - 57.9 °F 48% 29.83 in 10.0 mi South 9.2 mph - N/A   Clear
5:56 PM 75.0 °F - 59.0 °F 57% 29.84 in 10.0 mi ENE 4.6 mph - N/A   Clear
6:56 PM 70.0 °F - 57.9 °F 65% 29.87 in 10.0 mi South 6.9 mph - 0.00 in   Clear
7:56 PM 66.0 °F - 57.9 °F 75% 29.89 in 10.0 mi South 6.9 mph - N/A   Clear
8:56 PM 62.6 °F - 57.2 °F 82% 29.93 in 10.0 mi South 6.9 mph - N/A   Clear
9:56 PM 61.0 °F - 55.9 °F 83% 29.94 in 10.0 mi South 6.9 mph - N/A   Clear
10:56 PM 60.1 °F - 55.9 °F 86% 29.96 in 10.0 mi South 4.6 mph - N/A   Clear
11:56 PM 59.0 °F - 55.0 °F 87% 29.96 in 10.0 mi South 5.8 mph - N/A   Clear